Home   Weather   Leon   Past weeks
Flag for Mexico

Past Weather in Leon, Guanajuato, Mexico — Yesterday and Last 2 Weeks

Now
61 °F

Passing clouds.


Feels Like: 61 °F
Forecast: 82 / 58 °F
Wind: 6 mph from North

Location: Del Bajio / Leon

Current Time: Jul 17, 2019 at 7:57:53 am

Latest Report: Jul 17, 2019 at 6:44 am


Visibility: 8 mi

Pressure: 29.90 "Hg (24.15 "Hg at 1808m altitude)

Humidity: 83%

Dew Point: 55 °F

Location of LeonLocation

Past Weather in Leon — Graph

°F

Leon Temperature Yesterday

Maximum temperature yesterday: 82 °F (at 5:48 pm)
Minimum temperature yesterday: 55 °F (at 5:52 am)
Average temperature yesterday: 68 °F

High & Low Weather Summary for the Past Weeks

 TemperatureHumidityPressure
High86 °F (Jul 6, 4:40 pm)100% (Jul 3, 5:44 am)30.41 "Hg (Jul 3, 5:44 am)
Low55 °F (Jul 16, 5:52 am)22% (Jul 6, 4:40 pm)29.67 "Hg (Jul 11, 6:40 pm)
Average70 °F65%30.16 "Hg
* Reported Jul 2 5:45 am — Jul 17 5:44 am, Leon. Weather by CustomWeather, © 2019

Note: Actual official high and low records may vary slightly from our data, if they occured in-between our weather recording intervals... More about our weather records

Advertising

Leon Weather History for the Previous 24 Hours

Scroll right to see more
 ConditionsComfort  
Time TempWeatherWind HumidityBarometerVisibility
5:44 am
Wed, Jul 17
59 °FPassing clouds.5 mph88%30.32 "Hg8 mi
4:44 am61 °FPassing clouds.7 mph83%30.32 "Hg8 mi
12:48 am66 °FPassing clouds.7 mph68%29.89 "Hg8 mi
11:44 pm
Tue, Jul 16
68 °FPassing clouds.8 mph60%30.33 "Hg8 mi
10:45 pm70 °FPassing clouds.8 mph60%30.30 "Hg8 mi
9:48 pm66 °FPartly cloudy.5 mph73%29.86 "Hg8 mi
8:49 pm68 °FPassing clouds.No wind60%30.26 "Hg8 mi
7:42 pm73 °FScattered clouds.6 mph44%30.23 "Hg10 mi
6:44 pm77 °FScattered clouds.8 mph42%29.85 "Hg8 mi
5:48 pm82 °FScattered clouds.No wind42%30.23 "Hg8 mi
4:43 pm81 °FScattered clouds.8 mph42%30.25 "Hg8 mi
3:45 pm81 °FScattered clouds.No wind42%29.88 "Hg8 mi
2:48 pm79 °FPartly sunny.7 mph48%30.32 "Hg8 mi
1:41 pm77 °FScattered clouds.5 mph54%30.35 "Hg10 mi
12:40 pm73 °FScattered clouds.5 mph61%30.00 "Hg10 mi
11:44 am72 °FScattered clouds.5 mph57%30.37 "Hg10 mi
10:43 am68 °FScattered clouds.No wind60%30.38 "Hg10 mi
9:45 am66 °FScattered clouds.No wind68%30.04 "Hg10 mi
8:54 am63 °FScattered clouds.No wind77%30.36 "Hg9 mi
7:44 am55 °FScattered clouds.5 mph94%30.34 "Hg9 mi
Weather by CustomWeather, © 2019

See weather overview